Location: Unspecified
(0.0000°N, 0.0000°E)
Time: 12:47:15
(UTC+00:00)

deb r/b Ablestar - Pass Details

Date: 18 November 2025
Orbit: 783 x 881 km, 66.7° (Epoch: 13 December)

Event Time Altitude Azimuth Distance (km) Brightness Sun altitude
Exits shadow 02:45:40 17° 121° (ESE) 1,890 ? -41.8°
Drops below altitude 10° 02:47:11 10° 132° (SE) 2,362 ? -41.4°
Sets 02:49:51 0° 142° (SE) 3,306 ? -40.8°
